Weather reports worldwide

Advertisment
Plauen, Germany (10569): temperature & dewpoint: 01.08.2020 03:00:00 - 07.08.2020 03:00:00 (CEST)Plauen, Germany (10569): temperature 5cm & temperature -5cm: 01.08.2020 03:00:00 - 07.08.2020 03:00:00 (CEST)Plauen, Germany (10569): temperature -20cm & temperature -100cm: 01.08.2020 03:00:00 - 07.08.2020 03:00:00 (CEST)Plauen, Germany (10569): wind speed & gusts: 01.08.2020 03:00:00 - 07.08.2020 03:00:00 (CEST)Plauen, Germany (10569): wind direction: 01.08.2020 03:00:00 - 07.08.2020 03:00:00 (CEST)Plauen, Germany (10569): reduced air pressure: 01.08.2020 03:00:00 - 07.08.2020 03:00:00 (CEST)Plauen, Germany (10569): visibility: 01.08.2020 03:00:00 - 07.08.2020 03:00:00 (CEST)Plauen, Germany (10569): sunshine duration: 01.08.2020 03:00:00 - 07.08.2020 03:00:00 (CEST)Plauen, Germany (10569): precipitation: 01.08.2020 03:00:00 - 07.08.2020 03:00:00 (CEST)
Date & Time tt [°C] td [°C] tt 5cm [°C] tt -5cm [°C] tt -20cm [°C] tt -100cm [°C] ff [km/h] ff [kn] fx [km/h] fx [kn] dd ppp [hPa] vv [km] sd [min] rr [mm]
07.08.2020 03:00:00 14,2 11,3 12,2 19,5 23,2 18,6 5 3 9 5 WSW 1022,4 54 0 0,0
07.08.2020 02:00:00 14,7 11,5 13,0 20,4 23,8 18,6 0 0 9 5 N 1022,5 48 0 0,0
07.08.2020 01:00:00 16,0 11,5 13,3 21,4 24,5 18,6 4 2 8 4 WSW 1022,3 62 0 0,0
07.08.2020 00:00:00 16,8 11,2 15,0 22,5 25,2 18,6 5 3 8 4 SSW 1022,0 60 0 0,0
06.08.2020 23:00:00 18,0 10,7 16,7 23,9 25,8 18,6 8 4 13 7 SSW 1021,4 44 0 0,0
06.08.2020 22:00:00 21,0 10,1 18,3 25,5 26,5 18,6 0 0 8 5 N 1020,7 47 0 0,0
06.08.2020 21:00:00 23,8 9,0 20,3 27,5 27,0 18,6 4 2 14 8 ENE 1019,7 57 28 0,0
06.08.2020 20:00:00 26,7 8,0 25,4 29,6 27,3 18,6 7 4 18 10 NE 1019,0 68 60 0,0
06.08.2020 19:00:00 27,4 8,6 27,1 32,2 27,2 18,6 6 4 19 11 NNE 1018,6 63 60 0,0
06.08.2020 18:00:00 27,9 8,0 31,3 34,4 26,6 18,6 8 4 21 12 N 1018,6 56 60 0,0
06.08.2020 17:00:00 28,2 8,2 33,5 34,8 25,8 18,6 8 4 21 11 NNW 1018,7 72 60 0,0
06.08.2020 16:00:00 27,4 7,0 34,2 34,5 24,7 18,6 9 5 19 11 N 1019,0 75 60 0,0
06.08.2020 15:00:00 26,9 7,5 32,9 33,2 23,4 18,6 4 2 19 11 NE 1019,4 58 60 0,0
06.08.2020 14:00:00 27,0 8,8 33,6 31,2 22,1 18,6 10 5 19 10 NE 1019,8 61 60 0,0
06.08.2020 13:00:00 25,9 8,4 32,4 28,6 20,8 18,6 8 4 21 11 NE 1020,3 54 60 0,0
06.08.2020 12:00:00 24,4 8,8 30,4 25,3 19,7 18,6 9 5 18 10 NNE 1020,7 75 60 0,0
06.08.2020 11:00:00 23,9 8,7 28,4 22,3 18,9 18,6 5 3 14 8 NE 1021,0 75 60 0,0
06.08.2020 10:00:00 21,9 9,6 26,4 19,6 18,5 18,6 4 2 8 5 S 1021,3 71 60 0,0
06.08.2020 09:00:00 17,2 10,4 22,0 17,3 18,4 18,6 2 1 11 6 WNW 1021,9 64 60 0,0
06.08.2020 08:00:00 13,4 9,1 16,8 14,9 18,7 18,6 6 3 14 7 SSW 1022,2 57 60 0,0
06.08.2020 07:00:00 9,9 8,0 9,0 14,3 19,1 18,6 3 2 7 4 W 1022,6 41 35 0,0
06.08.2020 06:00:00 9,3 8,0 7,7 14,6 19,6 18,6 3 2 6 3 SW 1022,4 28 0 0,0
06.08.2020 05:00:00 9,6 8,2 8,2 15,2 20,2 18,6 3 2 6 3 SSW 1022,2 52 0 0,0
06.08.2020 04:00:00 10,6 8,5 8,4 16,0 20,7 18,6 5 3 9 5 SW 1021,7 53 0 0,0
06.08.2020 03:00:00 11,5 9,0 9,9 16,8 21,3 18,6 8 4 12 6 WSW 1021,3 53 0 0,0
06.08.2020 02:00:00 10,9 8,8 9,5 17,7 22,0 18,6 3 2 10 5 SSW 1021,3 52 0 0,0
06.08.2020 01:00:00 13,8 9,1 11,5 18,7 22,7 18,7 7 4 17 9 S 1020,8 59 0 0,0
06.08.2020 00:00:00 14,5 9,2 11,4 19,9 23,4 18,7 6 4 10 5 SSW 1020,4 63 0 0,0
05.08.2020 23:00:00 14,8 9,4 12,6 21,3 24,1 18,7 3 1 6 3 W 1020,0 46 0 0,0
05.08.2020 22:00:00 17,6 9,1 15,1 23,1 24,7 18,7 2 1 9 5 WSW 1019,2 53 0 0,0
05.08.2020 21:00:00 19,9 8,9 17,9 25,1 25,3 18,7 6 4 9 5 S 1018,3 52 30 0,0
05.08.2020 20:00:00 24,1 5,9 21,2 27,5 25,6 18,7 3 2 10 5 SW 1017,2 69 60 0,0
05.08.2020 19:00:00 24,9 6,0 23,4 30,4 25,4 18,8 5 3 15 8 W 1016,9 75 60 0,0
05.08.2020 18:00:00 25,5 5,3 29,2 32,5 24,8 18,8 3 2 15 8 N 1016,9 53 60 0,0
05.08.2020 17:00:00 25,1 4,7 30,2 33,0 23,9 18,8 5 3 17 9 W 1017,2 75 60 0,0
05.08.2020 16:00:00 24,3 4,5 29,0 32,5 22,8 18,8 9 5 18 10 S 1017,4 64 60 0,0
05.08.2020 15:00:00 25,5 7,0 32,7 30,6 21,7 18,8 8 4 16 9 E 1017,6 64 51 0,0
05.08.2020 14:00:00 23,2 5,2 25,6 29,5 20,4 18,9 4 2 18 10 WSW 1018,3 51 55 0,0
05.08.2020 13:00:00 22,1 5,1 27,5 26,2 19,1 18,9 5 3 16 9 S 1018,7 74 43 0,0
05.08.2020 12:00:00 22,3 6,4 28,6 23,9 17,8 18,9 6 4 14 7 WNW 1018,7 68 60 0,0
05.08.2020 11:00:00 21,8 7,9 25,4 20,2 17,0 18,9 5 3 15 8 SSW 1018,8 61 60 0,0
05.08.2020 10:00:00 19,1 10,4 23,3 17,6 16,5 18,9 5 3 14 8 SSW 1019,4 52 60 0,0
05.08.2020 09:00:00 16,0 10,3 18,1 15,3 16,3 18,9 6 3 13 7 S 1020,1 61 60 0,0
05.08.2020 08:00:00 12,8 9,6 12,8 12,8 16,5 19,0 7 4 11 6 SSW 1020,7 54 60 0,0
05.08.2020 07:00:00 9,1 8,0 8,2 11,9 16,8 19,0 4 2 7 4 WNW 1020,9 25 36 0,0
05.08.2020 06:00:00 8,5 7,9 6,7 12,1 17,2 19,0 4 2 10 5 SW 1020,8 10 0 0,0
05.08.2020 05:00:00 8,9 8,2 7,1 12,7 17,6 19,0 4 2 10 5 SW 1020,6 21 0 0,0
05.08.2020 04:00:00 9,8 8,9 7,6 13,2 18,0 19,0 5 3 9 5 SW 1020,1 30 0 0,0
05.08.2020 03:00:00 10,5 9,2 8,9 13,9 18,5 19,0 6 3 9 5 SSW 1019,7 43 0 0,0
05.08.2020 02:00:00 10,6 9,2 8,3 14,5 19,0 19,1 3 2 10 5 SW 1019,4 34 0 0,0
05.08.2020 01:00:00 11,1 9,6 8,9 15,3 19,4 19,1 4 2 9 5 SSW 1019,2 48 0 0,0
05.08.2020 00:00:00 12,0 9,7 9,5 16,4 19,9 19,1 5 3 9 5 SSW 1019,2 50 0 0,0
04.08.2020 23:00:00 13,6 10,1 11,3 17,6 20,3 19,1 4 2 9 5 S 1018,5 53 0 0,0
04.08.2020 22:00:00 15,1 9,9 13,3 18,7 20,6 19,1 5 3 9 5 SSW 1018,1 58 0 0,0
04.08.2020 21:00:00 17,7 9,1 15,9 20,0 20,8 19,2 3 2 6 3 W 1017,0 65 23 0,0
04.08.2020 20:00:00 19,5 8,2 18,3 20,9 20,9 19,2 3 2 15 8 NW 1016,2 64 45 0,0
04.08.2020 19:00:00 18,5 7,8 18,2 21,7 20,8 19,2 8 4 19 10 N 1015,6 64 19 0,0
04.08.2020 18:00:00 19,5 7,6 21,5 22,4 20,6 19,2 11 6 27 15 NE 1015,3 75 15 0,0
04.08.2020 17:00:00 19,6 8,7 22,9 23,0 20,3 19,2 8 4 22 12 N 1014,9 68 9 0,0
04.08.2020 16:00:00 18,9 8,7 21,8 22,7 19,8 19,3 10 6 25 14 NE 1014,9 71 0 0,0
04.08.2020 15:00:00 18,4 8,5 20,8 22,7 19,3 19,3 12 6 27 15 N 1014,9 55 0 0,0
04.08.2020 14:00:00 19,2 10,0 23,2 21,9 18,6 19,3 11 6 34 18 N 1014,3 65 17 0,0
04.08.2020 13:00:00 17,3 9,3 19,8 19,6 18,2 19,3 14 8 29 16 N 1014,3 65 0 0,0
04.08.2020 12:00:00 16,3 10,6 18,2 18,3 17,9 19,3 13 7 26 14 N 1014,1 44 0 0,0
04.08.2020 11:00:00 15,6 10,1 16,9 17,1 17,8 19,4 11 6 22 12 NNE 1014,0 62 0 0,0
04.08.2020 10:00:00 14,6 10,2 15,8 16,2 17,7 19,4 11 6 19 11 N 1013,4 54 0 0,0
04.08.2020 09:00:00 13,5 9,8 13,8 15,1 17,7 19,4 13 7 23 12 N 1013,3 45 0 0,0
04.08.2020 08:00:00 13,4 10,3 13,5 14,8 17,9 19,4 8 4 16 8 NNE 1013,0 47 0 0,0
04.08.2020 07:00:00 13,2 10,0 12,9 14,6 18,1 19,4 8 4 17 9 N 1012,7 43 0 0,0
04.08.2020 06:00:00 13,4 9,6 13,0 14,6 18,3 19,4 10 6 20 11 N 1011,9 51 0 0,0
04.08.2020 05:00:00 13,7 9,3 13,1 14,8 18,5 19,4 11 6 19 10 N 1011,2 65 0 0,0
04.08.2020 04:00:00 13,7 9,0 12,7 15,0 18,8 19,5 7 4 14 8 N 1011,0 62 0 0,0
04.08.2020 03:00:00 14,1 9,0 13,0 15,3 19,0 19,5 7 4 15 8 NNE 1011,0 56 0 0,0
04.08.2020 02:00:00 12,9 9,8 12,2 15,5 19,4 19,5 4 2 9 5 E 1011,2 60 0 0,0
04.08.2020 01:00:00 13,3 9,8 12,3 15,9 19,7 19,5 5 3 9 5 E 1011,2 57 0 0,0
04.08.2020 00:00:00 14,9 9,3 13,1 16,4 20,0 19,5 5 3 14 7 NNE 1010,8 64 0 0,0
03.08.2020 23:00:00 15,1 9,1 14,0 16,8 20,4 19,5 7 4 12 6 N 1010,8 62 0 0,0
03.08.2020 22:00:00 15,8 8,8 14,4 17,3 20,8 19,5 9 5 19 10 N 1010,6 64 0 0,0
03.08.2020 21:00:00 16,3 9,2 14,9 18,2 21,2 19,5 11 6 23 12 N 1010,1 64 0 0,0
03.08.2020 20:00:00 17,7 8,8 17,1 19,4 21,4 19,5 13 7 25 13 N 1009,9 62 2 0,0
03.08.2020 19:00:00 18,0 8,7 17,9 20,3 21,5 19,5 13 7 27 15 N 1010,1 55 6 0,0
03.08.2020 18:00:00 18,8 9,3 19,8 21,8 21,5 19,6 14 7 27 15 N 1010,0 51 17 0,0
03.08.2020 17:00:00 19,0 10,5 21,1 22,0 21,3 19,6 11 6 21 11 N 1010,2 48 0 0,0
03.08.2020 16:00:00 17,7 10,3 19,2 21,4 21,1 19,6 6 4 15 8 N 1011,1 43 5 0,0
03.08.2020 15:00:00 16,7 11,2 18,4 20,7 21,0 19,6 11 6 18 10 N 1011,8 32 1 0,0
03.08.2020 14:00:00 16,9 10,9 20,1 20,6 20,8 19,6 10 5 23 12 NNE 1012,0 38 1 0,0
03.08.2020 13:00:00 16,3 11,0 18,4 21,0 20,5 19,6 12 6 24 13 N 1012,4 39 7 0,0
03.08.2020 12:00:00 16,3 11,3 19,2 19,7 20,4 19,6 15 8 24 13 N 1012,6 33 0 0,0
03.08.2020 11:00:00 15,0 11,6 16,2 18,3 20,4 19,6 16 8 24 13 N 1012,9 41 0 0,0
03.08.2020 10:00:00 14,9 12,2 16,0 17,9 20,5 19,6 10 6 23 13 N 1012,9 40 0 0,0
03.08.2020 09:00:00 14,6 12,3 15,1 17,5 20,7 19,6 10 6 23 12 N 1013,1 36 0 0,0
03.08.2020 08:00:00 14,3 12,2 14,6 17,4 21,0 19,6 13 7 26 14 N 1013,1 31 0 0,0
03.08.2020 07:00:00 14,5 13,3 14,6 17,6 21,4 19,6 11 6 29 16 N 1012,7 18 0 0,0
03.08.2020 06:00:00 15,1 14,3 15,2 18,2 21,7 19,5 17 9 30 16 N 1012,5 5 0 0,0
03.08.2020 05:00:00 15,9 14,9 15,9 18,8 22,0 19,5 13 7 26 14 N 1012,3 9 0 0,0
03.08.2020 04:00:00 16,5 16,0 16,4 19,2 22,3 19,5 8 4 14 8 NNW 1012,1 3,8 0 0,0
03.08.2020 03:00:00 16,6 15,8 16,5 19,6 22,6 19,5 8 4 14 8 N 1012,6 6 0 0,0
03.08.2020 02:00:00 16,9 16,2 16,6 20,0 22,9 19,5 4 2 11 6 WNW 1012,8 5 0 0,0
03.08.2020 01:00:00 17,4 16,5 17,3 20,4 23,2 19,5 8 4 15 8 NNW 1012,8 3,8 0 0,0
03.08.2020 00:00:00 17,5 16,8 17,6 20,7 23,5 19,5 5 3 13 7 NNW 1012,8 4,8 0 0,0
02.08.2020 23:00:00 17,5 16,8 17,6 21,0 23,9 19,5 6 4 13 7 N 1012,9 7 0 0,0
02.08.2020 22:00:00 17,6 16,7 17,6 21,4 24,3 19,5 7 4 13 7 N 1012,9 10 0 0,2
02.08.2020 21:00:00 17,9 17,3 17,9 21,9 24,8 19,5 5 3 21 11 NW 1012,7 3,3 0 2,4
02.08.2020 20:00:00 18,4 17,3 18,6 22,8 25,3 19,5 9 5 20 11 N 1012,3 15 0 0,0
02.08.2020 19:00:00 18,6 17,4 18,8 23,3 25,8 19,4 8 4 16 9 NE 1012,2 6 0 1,9
02.08.2020 18:00:00 18,7 17,7 18,7 24,7 26,2 19,4 9 5 23 12 NNE 1012,8 5 0 3,2
02.08.2020 17:00:00 20,5 16,5 20,1 27,0 26,4 19,4 14 7 22 12 N 1012,1 24 0 0,0
02.08.2020 16:00:00 21,9 16,2 23,2 28,0 26,4 19,4 11 6 26 14 NNW 1011,9 44 0 0,1
02.08.2020 15:00:00 23,3 14,8 25,4 29,3 26,2 19,4 11 6 19 10 N 1011,1 46 0 0,0
02.08.2020 14:00:00 23,7 15,1 26,6 29,5 25,9 19,4 9 5 21 11 N 1011,6 38 0 0,0
02.08.2020 13:00:00 23,9 14,9 27,8 29,9 25,4 19,4 14 8 31 17 N 1012,0 36 11 0,0
02.08.2020 12:00:00 25,9 14,0 30,4 29,7 24,7 19,4 12 7 32 17 NNW 1011,9 54 15 0,0
02.08.2020 11:00:00 27,2 14,3 31,4 27,5 24,2 19,3 15 8 28 15 NNW 1010,9 55 33 0,0
02.08.2020 10:00:00 26,0 13,2 31,1 25,6 23,9 19,3 4 2 19 10 W 1010,3 63 60 0,0
02.08.2020 09:00:00 23,4 11,7 25,2 23,8 23,9 19,3 9 5 19 10 S 1010,6 48 50 0,0
02.08.2020 08:00:00 18,3 13,7 21,9 22,0 24,1 19,3 5 3 7 4 WNW 1012,0 66 40 0,0
02.08.2020 07:00:00 16,6 14,2 16,5 21,4 24,5 19,3 0 0 8 4 N 1012,6 48 2 0,0
02.08.2020 06:00:00 15,9 13,9 15,1 21,7 25,0 19,2 5 3 11 6 SW 1012,5 44 0 0,0
02.08.2020 05:00:00 16,4 14,2 15,0 22,4 25,5 19,2 4 2 8 4 SW 1012,1 52 0 0,0
02.08.2020 04:00:00 17,2 14,8 16,7 23,3 26,0 19,2 4 2 9 5 W 1012,2 56 0 0,0
02.08.2020 03:00:00 18,0 15,1 17,4 24,0 26,6 19,2 6 4 9 5 SSW 1012,6 50 0 0,0
02.08.2020 02:00:00 19,4 15,4 18,3 25,1 27,1 19,2 3 1 9 5 SE 1012,7 51 0 0,0
02.08.2020 01:00:00 21,0 14,4 19,6 26,1 27,6 19,2 6 3 19 10 W 1012,9 58 0 0,0
02.08.2020 00:00:00 23,7 13,3 23,2 27,3 28,1 19,2 4 2 37 20 SSE 1013,2 52 0 0,0
01.08.2020 23:00:00 25,2 11,8 24,7 28,2 28,6 19,2 9 5 21 11 NNW 1012,7 54 0 0,0
01.08.2020 22:00:00 26,1 11,4 24,7 29,2 29,2 19,2 6 3 13 7 NE 1011,8 50 0 0,0
01.08.2020 21:00:00 27,4 10,7 25,2 30,8 29,6 19,2 6 4 16 9 NE 1011,0 56 0 0,0
01.08.2020 20:00:00 29,6 9,8 28,5 32,9 29,9 19,2 14 8 23 12 NE 1010,6 70 47 0,0
01.08.2020 19:00:00 31,0 9,4 31,0 35,7 29,8 19,2 11 6 21 11 ENE 1010,6 61 60 0,0
01.08.2020 18:00:00 32,3 9,9 35,4 37,5 29,3 19,2 10 5 29 16 E 1010,7 75 60 0,0
01.08.2020 17:00:00 32,6 10,7 36,6 37,5 28,6 19,2 9 5 22 12 ENE 1011,0 58 60 0,0
01.08.2020 16:00:00 32,7 9,6 38,7 38,0 27,5 19,1 8 4 24 13 NE 1011,3 55 60 0,0
01.08.2020 15:00:00 32,1 9,8 38,7 36,7 26,3 19,1 11 6 19 10 NNE 1011,6 58 60 0,0
01.08.2020 14:00:00 31,7 9,3 38,9 34,5 25,1 19,1 7 4 16 9 NE 1012,4 74 60 0,0
01.08.2020 13:00:00 31,1 10,8 38,7 31,7 23,9 19,1 5 3 13 7 NW 1013,1 65 60 0,0
01.08.2020 12:00:00 29,1 10,0 35,1 28,4 22,8 19,1 5 3 16 9 ESE 1013,7 75 60 0,0
01.08.2020 11:00:00 28,0 10,5 32,2 25,7 22,1 19,1 6 4 17 9 SE 1013,9 69 60 0,0
01.08.2020 10:00:00 25,6 11,2 29,3 23,4 21,7 19,1 10 5 18 10 S 1014,3 75 60 0,0
01.08.2020 09:00:00 22,3 12,2 26,5 21,0 21,6 19,1 4 2 13 7 S 1014,9 60 60 0,0
01.08.2020 08:00:00 16,7 10,6 20,9 18,6 21,9 19,0 2 1 8 4 S 1016,2 49 60 0,0
01.08.2020 07:00:00 13,3 10,2 11,7 17,9 22,4 19,0 3 2 7 4 SSW 1017,2 57 39 0,0
01.08.2020 06:00:00 11,6 9,8 9,6 18,3 22,9 19,0 5 3 10 5 SSW 1017,3 51 0 0,0
01.08.2020 05:00:00 11,8 9,9 10,4 18,9 23,5 19,0 2 1 6 3 S 1017,2 51 0 0,0
01.08.2020 04:00:00 12,5 10,1 10,4 19,7 24,0 19,0 0 0 9 5 N 1017,4 57 0 0,0
01.08.2020 03:00:00 13,3 10,4 12,0 20,6 24,7 19,0 5 3 9 5 SW 1017,9 63 0 0,0

tt = temperature
td = dewpoint
tt 5cm = temperature 5cm
tt -5cm = temperature -5cm
tt -20cm = temperature -20cm
tt -100cm = temperature -100cm
ff = wind speed
fx = gusts
dd = wind direction
ppp = reduced air pressure
vv = visibility
sd = sunshine duration
rr = precipitation

Next stations